Tracking 29892 objects as of 21-Nov-2024
HD Live streaming from Space Station
objects crossing your sky now

OBJECT A

Track OBJECT A now!
10-day predictions


NORAD ID: 59917
Int'l Code: 2024-105A
Perigee: 527.5 km
Apogee: 549.6 km
Inclination: 97.6 °
Period: 95.3 minutes
Semi major axis: 6909 km
RCS: Unknown
Launch date: May 30, 2024
Source: People's Republic of China (PRC)
Launch site: Jiuquan Satellite Launch Center, China (JSC)
Your satellite tracking list
Your tracking list is empty




NASA's NSSDC Master Catalog

Two Line Element Set (TLE):
1 59917U 24105A   24326.16233478  .00006091  00000-0  36183-3 0  9994
2 59917  97.6028 331.3462 0016015  50.5653 309.6991 15.11560685 26287
Source of the keplerian elements: AFSPC